Hourly Weather Golanka

Today, 18 May, Tuesday

Time Temperature Precipitation Wind Pressure Humidity
00:00 +12°C° 0 mm 1 mps 743 mmHg 81%
01:00 +10°C° 0 mm 2 mps 743 mmHg 82%
02:00 +11°C° 0 mm 1 mps 743 mmHg 84%
03:00 +11°C° 0 mm 1 mps 742 mmHg 86%
04:00 +11°C° 0 mm 1 mps 742 mmHg 88%
05:00 +12°C° 0 mm 1 mps 743 mmHg 84%
06:00 +14°C° 0 mm 1 mps 743 mmHg 80%
07:00 +16°C° 0 mm 1 mps 743 mmHg 76%
08:00 +18°C° 0.3 mm 1 mps 743 mmHg 71%
09:00 +18°C° 0.3 mm 2 mps 743 mmHg 67%
10:00 +19°C° 0.3 mm 2 mps 743 mmHg 62%
11:00 +19°C° 0.5 mm 2 mps 743 mmHg 63%
12:00 +19°C° 0.5 mm 3 mps 743 mmHg 64%
13:00 +19°C° 0.5 mm 4 mps 743 mmHg 64%
14:00 +18°C° 0.8 mm 4 mps 743 mmHg 71%
15:00 +16°C° 0.8 mm 5 mps 743 mmHg 77%
16:00 +15°C° 0.8 mm 5 mps 743 mmHg 84%
17:00 +14°C° 0.2 mm 5 mps 743 mmHg 86%
18:00 +13°C° 0.2 mm 5 mps 744 mmHg 89%
19:00 +12°C° 0.2 mm 5 mps 744 mmHg 91%
20:00 +10°C° 0 mm 5 mps 744 mmHg 92%
21:00 +10°C° 0 mm 5 mps 744 mmHg 92%
22:00 +9°C° 0 mm 5 mps 745 mmHg 93%
23:00 +9°C° 0.1 mm 5 mps 745 mmHg 93%

Tomorrow, 19 May, Wednesday

Time Temperature Precipitation Wind Pressure Humidity
00:00 +8°C° 0.1 mm 5 mps 745 mmHg 93%
01:00 +8°C° 0.1 mm 4 mps 745 mmHg 93%
02:00 +8°C° 0 mm 4 mps 745 mmHg 93%
03:00 +8°C° 0 mm 4 mps 745 mmHg 93%
04:00 +7°C° 0 mm 4 mps 745 mmHg 93%
05:00 +8°C° 0 mm 4 mps 746 mmHg 89%
06:00 +9°C° 0 mm 5 mps 746 mmHg 86%
07:00 +9°C° 0 mm 5 mps 747 mmHg 83%
08:00 +12°C° 0 mm 4 mps 747 mmHg 77%
09:00 +13°C° 0 mm 4 mps 747 mmHg 71%
10:00 +15°C° 0 mm 4 mps 747 mmHg 65%
11:00 +15°C° 0.2 mm 4 mps 747 mmHg 66%
12:00 +15°C° 0.2 mm 4 mps 747 mmHg 67%
13:00 +15°C° 0.2 mm 4 mps 747 mmHg 68%
14:00 +15°C° 0.4 mm 4 mps 747 mmHg 70%
15:00 +14°C° 0.4 mm 4 mps 748 mmHg 72%
16:00 +14°C° 0.4 mm 4 mps 748 mmHg 74%
17:00 +13°C° 0.1 mm 4 mps 748 mmHg 77%
18:00 +12°C° 0.1 mm 4 mps 749 mmHg 80%
19:00 +11°C° 0.1 mm 3 mps 749 mmHg 83%
20:00 +9°C° 0 mm 3 mps 749 mmHg 85%
21:00 +8°C° 0 mm 3 mps 749 mmHg 87%
22:00 +5°C° 0 mm 3 mps 750 mmHg 89%
23:00 +5°C° 0 mm 3 mps 750 mmHg 89%

Day after tomorrow, 20 May, Thursday

Time Temperature Precipitation Wind Pressure Humidity
00:00 +4°C° 0 mm 3 mps 750 mmHg 90%
01:00 +5°C° 0 mm 2 mps 750 mmHg 91%
02:00 +5°C° 0 mm 2 mps 750 mmHg 92%
03:00 +5°C° 0 mm 2 mps 750 mmHg 93%
04:00 +4°C° 0 mm 2 mps 750 mmHg 93%
05:00 +5°C° 0 mm 3 mps 751 mmHg 87%
06:00 +7°C° 0 mm 4 mps 751 mmHg 81%
07:00 +10°C° 0 mm 4 mps 751 mmHg 74%
08:00 +12°C° 0 mm 4 mps 751 mmHg 69%
09:00 +13°C° 0 mm 5 mps 751 mmHg 64%
10:00 +15°C° 0 mm 5 mps 751 mmHg 58%
11:00 +15°C° 0 mm 5 mps 751 mmHg 57%
12:00 +16°C° 0 mm 5 mps 750 mmHg 56%
13:00 +16°C° 0 mm 5 mps 750 mmHg 55%
14:00 +16°C° 0 mm 5 mps 750 mmHg 57%
15:00 +15°C° 0 mm 5 mps 751 mmHg 58%
16:00 +15°C° 0 mm 5 mps 751 mmHg 60%
17:00 +14°C° 0 mm 5 mps 751 mmHg 65%
18:00 +12°C° 0 mm 5 mps 751 mmHg 70%
19:00 +10°C° 0 mm 5 mps 751 mmHg 76%
20:00 +8°C° 0 mm 5 mps 752 mmHg 76%
21:00 +7°C° 0 mm 4 mps 752 mmHg 76%
22:00 +6°C° 0 mm 4 mps 752 mmHg 76%
23:00 +5°C° 0 mm 4 mps 752 mmHg 81%

21 May, Friday

Time Temperature Precipitation Wind Pressure Humidity
00:00 +4°C° 0 mm 3 mps 752 mmHg 86%
01:00 +3°C° 0 mm 3 mps 752 mmHg 91%
02:00 +3°C° 0 mm 3 mps 752 mmHg 91%
03:00 +3°C° 0 mm 3 mps 752 mmHg 91%
04:00 +2°C° 0 mm 3 mps 752 mmHg 90%
05:00 +4°C° 0 mm 4 mps 752 mmHg 83%
06:00 +6°C° 0 mm 5 mps 753 mmHg 76%
07:00 +8°C° 0 mm 6 mps 753 mmHg 68%
08:00 +9°C° 0 mm 6 mps 752 mmHg 62%
09:00 +10°C° 0 mm 6 mps 752 mmHg 56%
10:00 +11°C° 0 mm 6 mps 752 mmHg 50%
11:00 +13°C° 0 mm 6 mps 752 mmHg 49%
12:00 +13°C° 0 mm 5 mps 752 mmHg 47%
13:00 +14°C° 0 mm 5 mps 752 mmHg 46%
14:00 +14°C° 0 mm 5 mps 752 mmHg 47%
15:00 +14°C° 0 mm 4 mps 751 mmHg 48%
16:00 +14°C° 0 mm 4 mps 751 mmHg 49%
17:00 +13°C° 0 mm 3 mps 751 mmHg 56%
18:00 +11°C° 0 mm 3 mps 751 mmHg 63%
19:00 +10°C° 0 mm 2 mps 751 mmHg 70%
20:00 +9°C° 0 mm 2 mps 751 mmHg 73%
21:00 +8°C° 0 mm 2 mps 751 mmHg 75%
22:00 +5°C° 0 mm 3 mps 751 mmHg 78%
23:00 +5°C° 0 mm 3 mps 750 mmHg 80%

22 May, Saturday

Time Temperature Precipitation Wind Pressure Humidity
00:00 +5°C° 0 mm 3 mps 750 mmHg 82%
01:00 +7°C° 0 mm 3 mps 750 mmHg 84%
02:00 +7°C° 0 mm 2 mps 750 mmHg 84%
03:00 +8°C° 0 mm 2 mps 750 mmHg 84%
04:00 +8°C° 0 mm 2 mps 749 mmHg 83%
05:00 +9°C° 0.1 mm 3 mps 749 mmHg 82%
06:00 +10°C° 0.1 mm 3 mps 749 mmHg 81%
07:00 +11°C° 0.1 mm 3 mps 749 mmHg 80%
08:00 +13°C° 0 mm 4 mps 748 mmHg 73%
09:00 +15°C° 0 mm 5 mps 748 mmHg 67%
10:00 +16°C° 0 mm 6 mps 748 mmHg 61%
11:00 +17°C° 0 mm 6 mps 748 mmHg 60%
12:00 +17°C° 0 mm 6 mps 748 mmHg 60%
13:00 +19°C° 0 mm 6 mps 747 mmHg 59%
14:00 +19°C° 0.1 mm 6 mps 747 mmHg 62%
15:00 +19°C° 0.1 mm 5 mps 747 mmHg 64%
16:00 +19°C° 0.1 mm 5 mps 747 mmHg 67%
17:00 +16°C° 0.9 mm 5 mps 747 mmHg 76%
18:00 +14°C° 0.9 mm 5 mps 747 mmHg 84%
19:00 +12°C° 0.9 mm 5 mps 748 mmHg 93%
20:00 +12°C° 1.3 mm 4 mps 748 mmHg 94%
21:00 +11°C° 1.3 mm 3 mps 748 mmHg 95%
22:00 +12°C° 1.3 mm 2 mps 748 mmHg 97%
23:00 +12°C° 0.6 mm 2 mps 748 mmHg 97%

23 May, Sunday

Time Temperature Precipitation Wind Pressure Humidity
00:00 +12°C° 0.6 mm 2 mps 748 mmHg 97%
01:00 +11°C° 0.6 mm 1 mps 748 mmHg 97%
02:00 +11°C° 0.4 mm 1 mps 748 mmHg 96%
03:00 +11°C° 0.4 mm 1 mps 748 mmHg 95%
04:00 +11°C° 0.4 mm 1 mps 748 mmHg 95%
05:00 +10°C° 0.2 mm 2 mps 748 mmHg 91%
06:00 +12°C° 0.2 mm 2 mps 748 mmHg 87%
07:00 +13°C° 0.2 mm 2 mps 748 mmHg 83%
08:00 +14°C° 0.1 mm 2 mps 748 mmHg 75%
09:00 +14°C° 0.1 mm 3 mps 748 mmHg 67%
10:00 +16°C° 0.1 mm 3 mps 749 mmHg 59%
11:00 +17°C° 0.1 mm 3 mps 749 mmHg 57%
12:00 +17°C° 0.1 mm 4 mps 749 mmHg 54%
13:00 +18°C° 0.1 mm 4 mps 749 mmHg 52%
14:00 +18°C° 0.1 mm 4 mps 749 mmHg 56%
15:00 +17°C° 0.1 mm 4 mps 749 mmHg 60%
16:00 +17°C° 0.1 mm 4 mps 749 mmHg 64%
17:00 +16°C° 0.2 mm 3 mps 749 mmHg 71%
18:00 +14°C° 0.2 mm 3 mps 750 mmHg 78%
19:00 +13°C° 0.2 mm 2 mps 750 mmHg 84%
20:00 +12°C° 0 mm 2 mps 750 mmHg 86%
21:00 +10°C° 0 mm 2 mps 751 mmHg 88%
22:00 +9°C° 0 mm 2 mps 751 mmHg 90%
23:00 +9°C° 0 mm 2 mps 751 mmHg 91%
Show more